Tracking 29030 objects as of 25-Jun-2024
HD Live streaming from Space Station
objects crossing your sky now

ONEWEB-0508

Track ONEWEB-0508 now!
10-day predictions
ONEWEB-0508 is classified as:


NORAD ID: 54126
Int'l Code: 2022-138P
Perigee: 1,191.1 km
Apogee: 1,194.7 km
Inclination: 87.9 °
Period: 109.1 minutes
Semi major axis: 7563 km
RCS: Unknown
Launch date: October 22, 2022
Source: United Kingdom (UK)
Launch site: SRIHARIKOTA (SRI)
Your satellite tracking list
Your tracking list is empty




NASA's NSSDC Master Catalog

Two Line Element Set (TLE):
1 54126U 22138P   24176.81061986  .00000051  00000-0  94395-4 0  9993
2 54126  87.9156  88.7242 0002430  74.0273 286.1127 13.19725906 81558
Source of the keplerian elements: AFSPC